Location: Sternwarte-Kraichtal
(49.1689°N, 8.6996°E)
Time: 06:49:39
(UTC+01:00)

N. Korean satellite - Visible Passes

Search period start: 27 January 2022 00:00
Search period end: 06 February 2022 00:00
Orbit: 447 x 490 km, 97.3° (Epoch: 26 January)

Date Brightness Start Highest point End Pass type
(mag) Time Alt. Az. Time Alt. Az. Time Alt. Az.
27 Jan 9.5 04:44:48 10° NE 04:47:10 16° E 04:48:42 13° ESE visible
27 Jan 6.9 06:17:02 10° N 06:20:31 43° WNW 06:22:46 19° SW visible
28 Jan 6.5 05:47:41 10° NNE 05:51:21 85° ESE 05:53:41 21° SSW visible
28 Jan 8.6 07:23:19 10° NW 07:23:52 10° WNW 07:24:25 10° WNW visible
28 Jan 10.0 18:00:30 10° WSW 18:02:03 12° W 18:03:36 10° WNW visible
29 Jan 8.0 05:18:37 10° NNE 05:22:02 38° E 05:24:38 15° SSE visible
29 Jan 8.0 06:52:18 10° NNW 06:54:57 19° WNW 06:57:35 10° WSW visible
30 Jan 9.3 04:49:59 10° NE 04:52:36 18° E 04:55:12 10° SE visible
30 Jan 7.1 06:22:29 10° N 06:25:53 37° WNW 06:29:15 10° SW visible
31 Jan 6.4 05:53:02 10° NNE 05:56:42 83° WNW 06:00:18 10° SSW visible
31 Jan 10.2 18:06:27 10° WSW 18:07:26 11° W 18:08:23 10° WNW visible
01 Feb 7.7 05:23:52 10° NNE 05:27:22 43° E 05:30:50 10° S visible
01 Feb 8.1 06:57:46 10° NNW 07:00:11 17° WNW 07:02:36 10° WSW visible
02 Feb 9.1 04:55:05 10° NE 04:57:54 21° E 05:00:41 10° SE visible
02 Feb 7.2 06:27:49 10° N 06:31:07 33° WNW 06:34:22 10° SW visible
03 Feb 10.0 04:27:54 10° E 04:28:17 10° E 04:28:41 10° E visible
03 Feb 6.4 05:58:15 10° N 06:01:54 72° WNW 06:05:28 10° SSW visible
04 Feb 7.4 05:28:59 10° NNE 05:32:33 50° E 05:36:03 10° S visible
04 Feb 8.2 07:03:07 10° NNW 07:05:18 15° WNW 07:07:28 10° W visible
05 Feb 8.9 05:00:04 10° NE 05:03:03 23° E 05:05:59 10° SSE visible
05 Feb 7.4 06:33:01 10° N 06:36:11 29° WNW 06:39:20 10° SW visible
